Weather History for Camden, AR

Change the Weather History Date:

Wednesday, April 17, 2013

  Actual Average Record
Temperature  
Mean Temperature 78 °F -  
Max Temperature 86 °F 78 °F 90 °F (1955)
Min Temperature 69 °F 50 °F 31 °F (1951)
Cooling Degree Days 12    
Growing Degree Days 28 (Base 50)    
Moisture  
Dew Point 66 °F    
Average Humidity 72    
Maximum Humidity 94    
Minimum Humidity 48    
Precipitation  
Precipitation 0.00 in - - ()
Sea Level Pressure  
Sea Level Pressure 29.92 in    
Wind  
Wind Speed 8 mph (SSE)    
Max Wind Speed 21 mph    
Max Gust Speed 28 mph    
Visibility 7 miles    
Events      
Averages and records for this station are not official NWS values.
T = Trace of Precipitation, MM = Missing Value Source: NWS Daily Summary

Daily Weather History Graph

Daily Weather History Graph

Search for Another Location

Airport:

Trip Planner

Search our weather history database for the weather conditions in past years. The results will help you decide how hot, cold, wet, or windy it might be!

Date:

Astronomy

Apr. 17, 2013 Rise Set
Actual Time 6:37 AM CDT 7:43 PM CDT
Civil Twilight 6:12 AM CDT 8:09 PM CDT
Nautical Twilight 5:41 AM CDT 8:40 PM CDT
Astronomical Twilight 5:10 AM CDT 9:11 PM CDT
Moon 11:57 AM CDT (4/17) 1:15 AM CDT (4/17)
Length of Visible Light 13h 57m
Length of Day
13h 05m
Waxing Crescent, 42% of the Moon is Illuminated
Apr 17
Waxing Crescent
Apr 18
First Quarter
Apr 25
Full
May 2
Last Quarter
May 9
New

Hourly Weather History & Observations

Time (CDT) Temp. Heat Index Dew Point Humidity Pressure Visibility Wind Dir Wind Speed Gust Speed Precip Events Conditions
12:15 AM 71.6 °F - 68.0 °F 88% 29.99 in 8.0 mi SSE 4.6 mph - N/A   Mostly Cloudy
12:35 AM 71.6 °F - 66.2 °F 83% 29.99 in 7.0 mi SE 5.8 mph - N/A   Scattered Clouds
12:55 AM 71.6 °F - 68.0 °F 88% 29.99 in 7.0 mi SE 5.8 mph - N/A   Partly Cloudy
1:15 AM 71.6 °F - 68.0 °F 88% 29.99 in 7.0 mi SE 6.9 mph - N/A   Clear
1:55 AM 71.6 °F - 68.0 °F 88% 29.98 in 7.0 mi SE 5.8 mph - N/A   Clear
2:15 AM 71.6 °F - 68.0 °F 88% 29.98 in 7.0 mi SE 5.8 mph - N/A   Clear
2:35 AM 71.6 °F - 68.0 °F 88% 29.98 in 7.0 mi SSE 4.6 mph - N/A   Clear
2:55 AM 69.8 °F - 66.2 °F 88% 29.98 in 5.0 mi SE 4.6 mph - N/A   Clear
3:15 AM 69.8 °F - 66.2 °F 88% 29.98 in 5.0 mi Calm Calm - N/A   Scattered Clouds
3:35 AM 69.8 °F - 66.2 °F 88% 29.98 in 5.0 mi SSE 4.6 mph - N/A   Partly Cloudy
3:55 AM 69.8 °F - 66.2 °F 88% 29.99 in 5.0 mi SE 3.5 mph - N/A   Partly Cloudy
4:15 AM 69.8 °F - 66.2 °F 88% 29.99 in 4.0 mi SE 5.8 mph - N/A   Scattered Clouds
4:35 AM 69.8 °F - 68.0 °F 94% 29.99 in 4.0 mi SE 6.9 mph - N/A   Scattered Clouds
4:55 AM 69.8 °F - 68.0 °F 94% 29.99 in 4.0 mi SE 5.8 mph - N/A   Scattered Clouds
5:15 AM 69.8 °F - 68.0 °F 94% 29.99 in 4.0 mi SSE 4.6 mph - N/A   Mostly Cloudy
5:35 AM 69.8 °F - 68.0 °F 94% 29.99 in 3.0 mi SE 6.9 mph - N/A   Scattered Clouds
5:55 AM 69.8 °F - 68.0 °F 94% 29.99 in 3.0 mi SE 4.6 mph - N/A   Clear
6:15 AM 69.8 °F - 68.0 °F 94% 29.99 in 4.0 mi SE 5.8 mph - N/A   Scattered Clouds
6:35 AM 69.8 °F - 68.0 °F 94% 29.99 in 3.0 mi SE 5.8 mph - N/A   Mostly Cloudy
6:55 AM 69.8 °F - 68.0 °F 94% 30.00 in 3.0 mi SSE 5.8 mph - N/A   Overcast
7:15 AM 71.6 °F - 68.0 °F 88% 30.01 in 3.0 mi SSE 5.8 mph - N/A   Overcast
7:35 AM 71.6 °F - 68.0 °F 88% 30.01 in 3.0 mi SSE 6.9 mph - N/A   Overcast
7:55 AM 71.6 °F - 68.0 °F 88% 30.01 in 3.0 mi SE 8.1 mph - N/A   Overcast
8:15 AM 71.6 °F - 68.0 °F 88% 30.01 in 4.0 mi SE 8.1 mph - N/A   Overcast
8:35 AM 71.6 °F - 68.0 °F 88% 30.01 in 4.0 mi SE 11.5 mph - N/A   Mostly Cloudy
8:55 AM 73.4 °F - 68.0 °F 83% 30.01 in 5.0 mi SSE 8.1 mph - N/A   Mostly Cloudy
9:15 AM 73.4 °F - 68.0 °F 83% 30.01 in 5.0 mi SSE 6.9 mph - N/A   Haze
9:35 AM 75.2 °F - 68.0 °F 78% 30.01 in 5.0 mi SSE 10.4 mph - N/A   Haze
9:55 AM 75.2 °F - 68.0 °F 78% 30.01 in 7.0 mi SE 10.4 mph - N/A   Overcast
10:15 AM 75.2 °F - 68.0 °F 78% 30.01 in 6.0 mi SSE 9.2 mph - N/A   Haze
10:35 AM 75.2 °F - 68.0 °F 78% 30.01 in 6.0 mi SSE 9.2 mph - N/A   Haze
11:15 AM 80.6 °F 83.2 °F 68.0 °F 65% 29.99 in 9.0 mi SSE 12.7 mph 18.4 mph N/A   Partly Cloudy
11:55 AM 82.4 °F 85.4 °F 68.0 °F 62% 29.98 in 8.0 mi South 9.2 mph - N/A   Mostly Cloudy
12:15 PM 82.4 °F 85.4 °F 68.0 °F 62% 29.97 in 8.0 mi South 12.7 mph 21.9 mph N/A   Mostly Cloudy
12:35 PM 82.4 °F 85.4 °F 68.0 °F 62% 29.96 in 8.0 mi South 15.0 mph 24.2 mph N/A   Mostly Cloudy
12:55 PM 82.4 °F 84.6 °F 66.2 °F 58% 29.96 in 9.0 mi South 10.4 mph 23.0 mph N/A   Mostly Cloudy
1:15 PM 84.2 °F 86.6 °F 66.2 °F 55% 29.94 in 9.0 mi South 11.5 mph 17.3 mph N/A   Mostly Cloudy
1:35 PM 84.2 °F 86.6 °F 66.2 °F 55% 29.93 in 8.0 mi SSE 18.4 mph 25.3 mph N/A   Mostly Cloudy
1:55 PM 82.4 °F 84.6 °F 66.2 °F 58% 29.92 in 9.0 mi SSE 11.5 mph 26.5 mph N/A   Mostly Cloudy
2:15 PM 86.0 °F 88.2 °F 66.2 °F 51% 29.91 in 10.0 mi South 16.1 mph 24.2 mph N/A   Scattered Clouds
2:35 PM 86.0 °F 87.3 °F 64.4 °F 48% 29.90 in 9.0 mi South 13.8 mph 24.2 mph N/A   Mostly Cloudy
2:55 PM 86.0 °F 88.2 °F 66.2 °F 51% 29.89 in 10.0 mi South 13.8 mph 21.9 mph N/A   Mostly Cloudy
3:15 PM 86.0 °F 87.3 °F 64.4 °F 48% 29.87 in 9.0 mi SSE 20.7 mph 27.6 mph N/A   Scattered Clouds
3:55 PM 86.0 °F 87.3 °F 64.4 °F 48% 29.86 in 10.0 mi South 12.7 mph 25.3 mph N/A   Partly Cloudy
4:15 PM 86.0 °F 87.3 °F 64.4 °F 48% 29.84 in 9.0 mi SSE 15.0 mph 24.2 mph N/A   Clear
4:35 PM 84.2 °F 85.6 °F 64.4 °F 51% 29.84 in 10.0 mi SSE 12.7 mph 21.9 mph N/A   Partly Cloudy
4:55 PM 84.2 °F 85.6 °F 64.4 °F 51% 29.83 in 10.0 mi SSE 15.0 mph 19.6 mph N/A   Clear
5:15 PM 86.0 °F 88.2 °F 66.2 °F 51% 29.83 in 9.0 mi South 10.4 mph 18.4 mph N/A   Clear
5:35 PM 86.0 °F 87.3 °F 64.4 °F 48% 29.82 in 10.0 mi SE 16.1 mph 19.6 mph N/A   Clear
5:55 PM 84.2 °F 85.6 °F 64.4 °F 51% 29.81 in 10.0 mi SSE 13.8 mph 20.7 mph N/A   Partly Cloudy
6:15 PM 86.0 °F 87.3 °F 64.4 °F 48% 29.80 in 10.0 mi SSE 20.7 mph 25.3 mph N/A   Mostly Cloudy
6:55 PM 84.2 °F 85.0 °F 62.6 °F 48% 29.80 in 10.0 mi SSE 10.4 mph 20.7 mph N/A   Scattered Clouds
7:15 PM 82.4 °F 83.9 °F 64.4 °F 54% 29.79 in 10.0 mi SSE 16.1 mph 21.9 mph N/A   Scattered Clouds
7:35 PM 82.4 °F 83.9 °F 64.4 °F 54% 29.80 in 10.0 mi SSE 11.5 mph 19.6 mph N/A   Partly Cloudy
7:55 PM 80.6 °F 82.3 °F 64.4 °F 58% 29.80 in 10.0 mi SSE 8.1 mph 18.4 mph N/A   Clear
8:15 PM 80.6 °F 82.3 °F 64.4 °F 58% 29.80 in 10.0 mi SSE 10.4 mph - N/A   Partly Cloudy
8:35 PM 80.6 °F 82.3 °F 64.4 °F 58% 29.80 in 10.0 mi SSE 11.5 mph 16.1 mph N/A   Partly Cloudy
8:55 PM 78.8 °F - 66.2 °F 65% 29.79 in 10.0 mi SSE 11.5 mph - N/A   Clear
9:15 PM 78.8 °F - 64.4 °F 61% 29.79 in 10.0 mi SSE 12.7 mph - N/A   Clear
9:35 PM 78.8 °F - 64.4 °F 61% 29.80 in 10.0 mi SSE 10.4 mph 17.3 mph N/A   Clear
9:55 PM 77.0 °F - 66.2 °F 69% 29.81 in 10.0 mi South 6.9 mph - N/A   Clear
10:15 PM 77.0 °F - 66.2 °F 69% 29.81 in 10.0 mi SSE 9.2 mph - N/A   Clear
10:35 PM 77.0 °F - 66.2 °F 69% 29.81 in 10.0 mi South 8.1 mph - N/A   Clear
10:55 PM 77.0 °F - 66.2 °F 69% 29.80 in 10.0 mi South 9.2 mph - N/A   Clear
11:15 PM 77.0 °F - 66.2 °F 69% 29.80 in 10.0 mi South 9.2 mph - N/A   Scattered Clouds
11:35 PM 77.0 °F - 66.2 °F 69% 29.80 in 10.0 mi South 9.2 mph 16.1 mph N/A   Partly Cloudy
11:55 PM 77.0 °F - 66.2 °F 69% 29.80 in 10.0 mi South 12.7 mph 17.3 mph N/A   Partly Cloudy